This demonstration page uses our WeatherBlox Daily Observations layout. Learn more.

Hourly Observations for November 14, 2019

Temp ( °F °C ) Dew Point ( °F °C ) Humidity (%) Winds ( mph kmh ) Pressure ( in mb ) Visibility ( mi km ) Precip ( " mm )
12:53 am 00:53 Clear 26 -3.3 21 -6.1 81 81 Calm 30.21 1023 10 16.09344 0 0
1:53 am 01:53 Clear 25 -3.9 22 -5.6 88 88 Calm 30.21 1023 10 16.09344 0 0
2:53 am 02:53 Clear 27 -2.8 22 -5.6 81 81 ESE 3 6 30.21 1023 10 16.09344 0 0
3:53 am 03:53 Mostly Clear 28 -2.2 24 -4.4 85 85 Calm 30.21 1023 10 16.09344 0 0
4:53 am 04:53 Clear 29 -1.7 24 -4.4 82 82 Calm 30.21 1023 10 16.09344 0 0
5:53 am 05:53 Mostly Cloudy 32 0 24 -4.4 73 73 VRB 5 7 30.21 1023 10 16.09344 0 0
6:53 am 06:53 Mostly Cloudy 32 0 24 -4.4 73 73 SSW 5 7 30.21 1023 10 16.09344 0 0
7:53 am 07:53 Cloudy 33 0.6 24 -4.4 70 70 SSW 3 6 30.24 1024 10 16.09344 0 0
8:53 am 08:53 Cloudy 34 1.1 24 -4.4 67 67 Calm 30.27 1025 10 16.09344 0 0
9:53 am 09:53 Cloudy 35 1.7 24 -4.4 64 64 SW 3 6 30.27 1025 10 16.09344 0 0
10:53 am 10:53 Cloudy 37 2.8 24 -4.4 59 59 SW 8 13 30.27 1025 10 16.09344 0 0
11:53 am 11:53 Partly Cloudy 39 3.9 24 -4.4 55 55 SW 6 9 30.27 1025 10 16.09344 0 0
12:53 pm 12:53 Sunny 40 4.4 25 -3.9 55 55 W 5 7 30.24 1024 10 16.09344 0 0
1:53 pm 13:53 Sunny 42 5.6 26 -3.3 53 53 WSW 7 11 30.24 1024 10 16.09344 0 0
2:53 pm 14:53 Sunny 43 6.1 25 -3.9 49 49 WSW 6 9 30.24 1024 10 16.09344 0 0
3:53 pm 15:53 Mostly Cloudy 42 5.6 25 -3.9 51 51 SSW 6 9 30.27 1025 10 16.09344 0 0
4:53 pm 16:53 Mostly Cloudy 41 5 25 -3.9 53 53 Calm 30.27 1025 10 16.09344 0 0
5:53 pm 17:53 Clear 33 0.6 25 -3.9 72 72 Calm 30.3 1026 10 16.09344 0 0
6:53 pm 18:53 Mostly Cloudy 32 0 27 -2.8 82 82 Calm 30.3 1026 10 16.09344 0 0
7:53 pm 19:53 Clear 28 -2.2 25 -3.9 88 88 Calm 30.3 1026 10 16.09344 0 0
8:53 pm 20:53 Clear 27 -2.8 24 -4.4 89 89 Calm 30.3 1026 10 16.09344 0 0
9:53 pm 21:53 Clear 26 -3.3 24 -4.4 92 92 Calm 30.33 1027 10 16.09344 0 0
10:53 pm 22:53 Clear 24 -4.4 23 -5 96 96 Calm 30.33 1027 10 16.09344 0 0
11:53 pm 23:53 Clear 23 -5 21 -6.1 92 92 Calm 30.33 1027 10 16.09344 0 0

Powered by AerisWeather